Time,TemperatureF,DewpointF,PressureIn,WindDirection,WindDirectionDegrees,WindSpeedMPH,WindSpeedGustMPH,Humidity,HourlyPrecipIn,Conditions,Clouds,dailyrainin,SoftwareType,DateUTC
2013-07-03 00:00:00,83.7,56.2,29.85,ESE,113,0.4,4.7,39,0.00,,,0.00,WUHU216HW,2013-07-03 06:00:00,
2013-07-03 00:10:00,83.5,56.0,29.85,SE,135,1.1,2.9,39,0.00,,,0.00,WUHU216HW,2013-07-03 06:10:00,
2013-07-03 00:20:00,82.8,56.2,29.85,SSW,203,3.6,5.1,40,0.00,,,0.00,WUHU216HW,2013-07-03 06:20:00,
2013-07-03 00:31:00,81.7,55.8,29.85,NE,45,0.4,3.8,41,0.00,,,0.00,WUHU216HW,2013-07-03 06:31:00,
2013-07-03 00:41:00,81.0,55.7,29.85,SW,225,0.9,3.8,42,0.00,,,0.00,WUHU216HW,2013-07-03 06:41:00,
2013-07-03 00:51:00,80.5,55.9,29.85,WSW,248,1.1,2.2,43,0.00,,,0.00,WUHU216HW,2013-07-03 06:51:00,
2013-07-03 01:01:00,79.9,55.4,29.85,SE,135,1.1,2.0,43,0.00,,,0.00,WUHU216HW,2013-07-03 07:01:00,
2013-07-03 01:11:00,79.6,55.6,29.84,SSE,158,0.7,2.2,44,0.00,,,0.00,WUHU216HW,2013-07-03 07:11:00,
2013-07-03 01:21:00,79.2,55.4,29.85,North,0,2.0,3.4,44,0.00,,,0.00,WUHU216HW,2013-07-03 07:21:00,
2013-07-03 01:31:00,78.8,55.6,29.85,WSW,248,0.9,1.8,45,0.00,,,0.00,WUHU216HW,2013-07-03 07:31:00,
2013-07-03 01:41:00,78.1,55.6,29.86,SSE,158,2.0,2.0,46,0.00,,,0.00,WUHU216HW,2013-07-03 07:41:00,
2013-07-03 01:51:00,77.6,55.1,29.86,SE,135,0.4,4.0,46,0.00,,,0.00,WUHU216HW,2013-07-03 07:51:00,
2013-07-03 02:01:00,77.0,55.3,29.86,SSE,158,1.3,2.9,47,0.00,,,0.00,WUHU216HW,2013-07-03 08:01:00,
2013-07-03 02:11:00,76.9,55.1,29.85,SE,135,0.9,4.3,47,0.00,,,0.00,WUHU216HW,2013-07-03 08:11:00,
2013-07-03 02:21:00,76.3,55.2,29.86,ESE,113,0.2,3.4,48,0.00,,,0.00,WUHU216HW,2013-07-03 08:21:00,
2013-07-03 02:31:00,75.4,55.6,29.86,SW,225,3.4,3.4,50,0.00,,,0.00,WUHU216HW,2013-07-03 08:31:00,
2013-07-03 02:41:00,74.7,54.9,29.86,East,90,0.0,1.8,50,0.00,,,0.00,WUHU216HW,2013-07-03 08:41:00,
2013-07-03 02:51:00,74.5,55.3,29.86,North,0,0.0,1.1,51,0.00,,,0.00,WUHU216HW,2013-07-03 08:51:00,
2013-07-03 03:01:00,74.3,55.1,29.86,SSW,203,2.7,2.7,51,0.00,,,0.00,WUHU216HW,2013-07-03 09:01:00,
2013-07-03 03:11:00,73.8,55.0,29.86,ESE,113,1.8,2.5,52,0.00,,,0.00,WUHU216HW,2013-07-03 09:11:00,
2013-07-03 03:21:00,73.4,55.2,29.86,NNW,338,0.7,1.8,53,0.00,,,0.00,WUHU216HW,2013-07-03 09:21:00,
2013-07-03 03:31:00,72.9,55.2,29.86,ESE,113,2.0,2.2,54,0.00,,,0.00,WUHU216HW,2013-07-03 09:31:00,
2013-07-03 03:41:00,72.5,54.8,29.86,SSE,158,0.0,2.5,54,0.00,,,0.00,WUHU216HW,2013-07-03 09:41:00,
2013-07-03 03:42:00,72.5,54.8,29.86,SSE,158,0.0,2.5,54,0.00,,,0.00,WUHU216HW,2013-07-03 09:42:00,
2013-07-03 03:52:00,72.4,55.2,29.86,ESE,113,0.0,1.1,55,0.00,,,0.00,WUHU216HW,2013-07-03 09:52:00,
2013-07-03 04:02:00,72.0,55.4,29.87,SSW,203,1.3,2.5,56,0.00,,,0.00,WUHU216HW,2013-07-03 10:02:00,
2013-07-03 04:12:00,71.6,55.1,29.87,SSW,203,1.8,3.4,56,0.00,,,0.00,WUHU216HW,2013-07-03 10:12:00,
2013-07-03 04:22:00,71.3,54.7,29.87,SSW,203,1.1,3.8,56,0.00,,,0.00,WUHU216HW,2013-07-03 10:22:00,
2013-07-03 04:32:00,71.1,54.5,29.87,South,180,0.0,1.3,56,0.00,,,0.00,WUHU216HW,2013-07-03 10:32:00,
2013-07-03 04:42:00,70.9,53.9,29.87,South,180,4.0,4.0,55,0.00,,,0.00,WUHU216HW,2013-07-03 10:42:00,
2013-07-03 04:53:00,70.6,53.6,29.87,SSE,158,2.2,3.1,55,0.00,,,0.00,WUHU216HW,2013-07-03 10:53:00,
2013-07-03 05:03:00,70.6,53.1,29.87,South,180,1.6,2.2,54,0.00,,,0.00,WUHU216HW,2013-07-03 11:03:00,
2013-07-03 05:13:00,70.4,53.4,29.87,NNW,338,0.0,2.9,55,0.00,,,0.00,WUHU216HW,2013-07-03 11:13:00,
2013-07-03 05:23:00,70.0,53.1,29.87,ENE,68,0.0,1.8,55,0.00,,,0.00,WUHU216HW,2013-07-03 11:23:00,
2013-07-03 05:33:00,69.8,52.9,29.87,SSW,203,2.5,3.4,55,0.00,,,0.00,WUHU216HW,2013-07-03 11:33:00,
2013-07-03 05:43:00,69.7,53.3,29.88,SSW,203,2.0,3.4,56,0.00,,,0.00,WUHU216HW,2013-07-03 11:43:00,
2013-07-03 05:53:00,69.5,53.6,29.88,SE,135,3.8,4.9,57,0.00,,,0.00,WUHU216HW,2013-07-03 11:53:00,
2013-07-03 06:03:00,69.1,53.7,29.88,SSW,203,2.5,4.0,58,0.00,,,0.00,WUHU216HW,2013-07-03 12:03:00,
2013-07-03 06:13:00,68.9,54.0,29.88,South,180,4.7,5.4,59,0.00,,,0.00,WUHU216HW,2013-07-03 12:13:00,
2013-07-03 06:23:00,68.8,53.9,29.88,SW,225,5.1,5.1,59,0.00,,,0.00,WUHU216HW,2013-07-03 12:23:00,
2013-07-03 06:33:00,69.5,55.1,29.89,SSE,158,3.4,6.3,60,0.00,,,0.00,WUHU216HW,2013-07-03 12:33:00,
2013-07-03 06:43:00,70.2,55.8,29.88,South,180,6.7,6.7,60,0.00,,,0.00,WUHU216HW,2013-07-03 12:43:00,
2013-07-03 06:54:00,70.9,55.9,29.88,SSW,203,4.5,5.4,59,0.00,,,0.00,WUHU216HW,2013-07-03 12:54:00,
2013-07-03 07:04:00,71.8,56.7,29.89,SSE,158,2.7,4.0,59,0.00,,,0.00,WUHU216HW,2013-07-03 13:04:00,
2013-07-03 07:14:00,72.4,56.7,29.88,SE,135,1.3,3.4,58,0.00,,,0.00,WUHU216HW,2013-07-03 13:14:00,
2013-07-03 07:24:00,73.1,57.3,29.89,ENE,68,0.4,3.1,58,0.00,,,0.00,WUHU216HW,2013-07-03 13:24:00,
2013-07-03 07:35:00,74.0,58.2,29.89,North,0,2.5,3.4,58,0.00,,,0.00,WUHU216HW,2013-07-03 13:35:00,
2013-07-03 07:45:00,74.5,58.8,29.89,West,270,1.1,1.8,58,0.00,,,0.00,WUHU216HW,2013-07-03 13:45:00,
2013-07-03 07:55:00,74.9,59.1,29.89,North,0,0.4,2.0,58,0.00,,,0.00,WUHU216HW,2013-07-03 13:55:00,
2013-07-03 08:05:00,74.5,58.8,29.89,NNE,23,1.3,1.6,58,0.00,,,0.00,WUHU216HW,2013-07-03 14:05:00,
2013-07-03 08:15:00,74.5,59.2,29.90,West,270,0.0,1.8,59,0.00,,,0.00,WUHU216HW,2013-07-03 14:15:00,
2013-07-03 08:26:00,75.2,60.5,29.90,ENE,68,0.7,1.1,60,0.00,,,0.00,WUHU216HW,2013-07-03 14:26:00,
2013-07-03 08:36:00,76.5,60.6,29.91,North,0,0.7,1.8,58,0.00,,,0.00,WUHU216HW,2013-07-03 14:36:00,
2013-07-03 08:46:00,77.0,60.6,29.90,West,270,2.0,2.0,57,0.00,,,0.00,WUHU216HW,2013-07-03 14:46:00,
2013-07-03 08:56:00,77.8,60.8,29.90,North,0,0.7,2.2,56,0.00,,,0.00,WUHU216HW,2013-07-03 14:56:00,
2013-07-03 09:06:00,78.5,60.9,29.90,North,0,1.8,2.7,55,0.00,,,0.00,WUHU216HW,2013-07-03 15:06:00,
2013-07-03 09:16:00,79.0,62.0,29.90,North,0,3.6,4.5,56,0.00,,,0.00,WUHU216HW,2013-07-03 15:16:00,
2013-07-03 09:26:00,78.1,60.6,29.89,North,0,3.4,5.6,55,0.00,,,0.00,WUHU216HW,2013-07-03 15:26:00,
2013-07-03 09:36:00,78.1,61.1,29.89,North,0,3.4,3.4,56,0.00,,,0.00,WUHU216HW,2013-07-03 15:36:00,
2013-07-03 09:46:00,78.5,61.5,29.90,NNE,23,3.4,4.7,56,0.00,,,0.00,WUHU216HW,2013-07-03 15:46:00,
2013-07-03 09:56:00,79.2,61.7,29.90,North,0,1.8,3.1,55,0.00,,,0.00,WUHU216HW,2013-07-03 15:56:00,
2013-07-03 10:06:00,80.5,62.2,29.89,WNW,293,0.4,2.5,54,0.00,,,0.00,WUHU216HW,2013-07-03 16:06:00,
2013-07-03 10:16:00,82.3,62.8,29.89,SE,135,0.2,2.7,52,0.00,,,0.00,WUHU216HW,2013-07-03 16:16:00,
2013-07-03 10:26:00,83.7,61.9,29.89,SSE,158,0.7,2.0,48,0.00,,,0.00,WUHU216HW,2013-07-03 16:26:00,
2013-07-03 10:36:00,85.3,64.1,29.89,SSE,158,1.8,1.8,49,0.00,,,0.00,WUHU216HW,2013-07-03 16:36:00,
2013-07-03 10:46:00,86.4,61.9,29.89,WNW,293,1.8,1.8,44,0.00,,,0.00,WUHU216HW,2013-07-03 16:46:00,
2013-07-03 10:57:00,86.6,60.8,29.88,West,270,4.0,4.0,42,0.00,,,0.00,WUHU216HW,2013-07-03 16:57:00,
2013-07-03 11:07:00,87.1,60.7,29.88,WSW,248,3.6,10.1,41,0.00,,,0.00,WUHU216HW,2013-07-03 17:07:00,
2013-07-03 11:17:00,87.3,55.4,29.88,West,270,9.2,10.5,34,0.00,,,0.00,WUHU216HW,2013-07-03 17:17:00,
2013-07-03 11:27:00,87.8,55.8,29.88,NW,315,6.3,9.4,34,0.00,,,0.00,WUHU216HW,2013-07-03 17:27:00,
2013-07-03 11:38:00,88.2,56.1,29.87,West,270,4.0,10.1,34,0.00,,,0.00,WUHU216HW,2013-07-03 17:38:00,
2013-07-03 11:48:00,88.7,57.3,29.87,SW,225,3.8,6.5,35,0.00,,,0.00,WUHU216HW,2013-07-03 17:48:00,
2013-07-03 11:58:00,89.3,57.1,29.87,West,270,2.7,8.5,34,0.00,,,0.00,WUHU216HW,2013-07-03 17:58:00,
2013-07-03 12:08:00,90.4,58.0,29.87,SSE,158,2.5,5.4,34,0.00,,,0.00,WUHU216HW,2013-07-03 18:08:00,
2013-07-03 12:18:00,90.9,57.7,29.86,SSW,203,7.2,7.2,33,0.00,,,0.00,WUHU216HW,2013-07-03 18:18:00,
2013-07-03 12:28:00,91.3,57.3,29.86,WNW,293,5.1,8.1,32,0.00,,,0.00,WUHU216HW,2013-07-03 18:28:00,
2013-07-03 12:38:00,91.1,55.4,29.86,West,270,8.3,12.3,30,0.00,,,0.00,WUHU216HW,2013-07-03 18:38:00,
2013-07-03 12:39:00,91.1,55.4,29.86,West,270,8.3,12.3,30,0.00,,,0.00,WUHU216HW,2013-07-03 18:39:00,
2013-07-03 12:49:00,91.4,56.6,29.86,WSW,248,7.2,9.4,31,0.00,,,0.00,WUHU216HW,2013-07-03 18:49:00,
2013-07-03 12:59:00,91.3,55.6,29.85,West,270,4.0,9.2,30,0.00,,,0.00,WUHU216HW,2013-07-03 18:59:00,
2013-07-03 13:09:00,91.4,54.7,29.85,West,270,7.8,11.9,29,0.00,,,0.00,WUHU216HW,2013-07-03 19:09:00,
2013-07-03 13:19:00,91.3,55.6,29.85,WSW,248,4.9,7.6,30,0.00,,,0.00,WUHU216HW,2013-07-03 19:19:00,
2013-07-03 13:29:00,91.3,51.2,29.85,WNW,293,5.1,11.4,26,0.00,,,0.00,WUHU216HW,2013-07-03 19:29:00,
2013-07-03 13:39:00,91.3,54.5,29.84,WSW,248,5.4,20.4,29,0.00,,,0.00,WUHU216HW,2013-07-03 19:39:00,
2013-07-03 13:49:00,92.0,51.8,29.84,WSW,248,6.5,13.6,26,0.00,,,0.00,WUHU216HW,2013-07-03 19:49:00,
2013-07-03 13:59:00,91.8,52.8,29.84,West,270,4.7,13.2,27,0.00,,,0.00,WUHU216HW,2013-07-03 19:59:00,
2013-07-03 14:09:00,91.8,49.5,29.84,NW,315,8.5,12.8,24,0.00,,,0.00,WUHU216HW,2013-07-03 20:09:00,
2013-07-03 14:19:00,91.8,48.4,29.84,WNW,293,12.8,15.7,23,0.00,,,0.00,WUHU216HW,2013-07-03 20:19:00,
2013-07-03 14:29:00,92.5,53.4,29.83,West,270,5.4,11.4,27,0.00,,,0.00,WUHU216HW,2013-07-03 20:29:00,
2013-07-03 14:39:00,92.7,53.6,29.83,NW,315,4.5,10.1,27,0.00,,,0.00,WUHU216HW,2013-07-03 20:39:00,
2013-07-03 14:49:00,92.5,52.3,29.83,WNW,293,6.7,12.8,26,0.00,,,0.00,WUHU216HW,2013-07-03 20:49:00,
2013-07-03 14:59:00,92.9,53.6,29.83,SW,225,8.9,11.2,27,0.00,,,0.00,WUHU216HW,2013-07-03 20:59:00,
2013-07-03 15:09:00,92.7,52.4,29.82,SW,225,8.7,9.8,26,0.00,,,0.00,WUHU216HW,2013-07-03 21:09:00,
2013-07-03 15:19:00,92.5,53.4,29.82,NNW,338,2.0,12.3,27,0.00,,,0.00,WUHU216HW,2013-07-03 21:19:00,
2013-07-03 15:29:00,92.9,53.6,29.82,SW,225,4.0,6.9,27,0.00,,,0.00,WUHU216HW,2013-07-03 21:29:00,
2013-07-03 15:39:00,92.7,52.4,29.82,NNW,338,8.1,8.1,26,0.00,,,0.00,WUHU216HW,2013-07-03 21:39:00,
2013-07-03 15:50:00,92.9,51.5,29.81,West,270,4.3,9.4,25,0.00,,,0.00,WUHU216HW,2013-07-03 21:50:00,
2013-07-03 16:00:00,92.5,49.0,29.82,West,270,8.7,12.8,23,0.00,,,0.00,WUHU216HW,2013-07-03 22:00:00,
2013-07-03 16:10:00,92.2,50.9,29.81,West,270,4.0,14.1,25,0.00,,,0.00,WUHU216HW,2013-07-03 22:10:00,
2013-07-03 16:20:00,92.5,51.2,29.81,WNW,293,6.3,10.7,25,0.00,,,0.00,WUHU216HW,2013-07-03 22:20:00,
2013-07-03 16:30:00,92.7,50.2,29.81,SW,225,4.7,10.7,24,0.00,,,0.00,WUHU216HW,2013-07-03 22:30:00,
2013-07-03 16:40:00,92.3,48.9,29.81,NW,315,9.2,12.8,23,0.00,,,0.00,WUHU216HW,2013-07-03 22:40:00,
2013-07-03 16:50:00,91.8,48.4,29.81,NW,315,10.5,12.8,23,0.00,,,0.00,WUHU216HW,2013-07-03 22:50:00,
2013-07-03 17:00:00,91.6,47.2,29.80,WNW,293,4.7,15.0,22,0.00,,,0.00,WUHU216HW,2013-07-03 23:00:00,
2013-07-03 17:10:00,91.3,45.8,29.80,NW,315,9.8,11.4,21,0.00,,,0.00,WUHU216HW,2013-07-03 23:10:00,
2013-07-03 17:21:00,91.3,46.9,29.80,WNW,293,5.4,13.4,22,0.00,,,0.00,WUHU216HW,2013-07-03 23:21:00,
2013-07-03 17:31:00,91.4,47.0,29.80,NW,315,11.4,11.4,22,0.00,,,0.00,WUHU216HW,2013-07-03 23:31:00,
2013-07-03 17:41:00,91.4,47.0,29.80,WNW,293,8.3,10.1,22,0.00,,,0.00,WUHU216HW,2013-07-03 23:41:00,
2013-07-03 17:52:00,91.1,46.7,29.79,West,270,10.3,12.5,22,0.00,,,0.00,WUHU216HW,2013-07-03 23:52:00,
2013-07-03 18:02:00,91.1,47.8,29.79,West,270,9.8,9.8,23,0.00,,,0.00,WUHU216HW,2013-07-04 00:02:00,
2013-07-03 18:12:00,90.9,47.7,29.79,WNW,293,8.5,10.5,23,0.00,,,0.00,WUHU216HW,2013-07-04 00:12:00,
2013-07-03 18:22:00,90.7,46.5,29.79,WNW,293,6.9,10.1,22,0.00,,,0.00,WUHU216HW,2013-07-04 00:22:00,
2013-07-03 18:32:00,90.7,47.5,29.78,NW,315,6.9,11.4,23,0.00,,,0.00,WUHU216HW,2013-07-04 00:32:00,
2013-07-03 18:42:00,90.7,47.5,29.78,West,270,8.3,8.7,23,0.00,,,0.00,WUHU216HW,2013-07-04 00:42:00,
2013-07-03 18:52:00,90.7,48.6,29.78,WSW,248,4.0,10.5,24,0.00,,,0.00,WUHU216HW,2013-07-04 00:52:00,
2013-07-03 19:02:00,90.7,48.6,29.78,West,270,6.9,9.4,24,0.00,,,0.00,WUHU216HW,2013-07-04 01:02:00,
2013-07-03 19:13:00,90.5,48.4,29.78,WNW,293,6.3,8.3,24,0.00,,,0.00,WUHU216HW,2013-07-04 01:13:00,
2013-07-03 19:23:00,90.4,48.3,29.78,West,270,3.8,8.5,24,0.00,,,0.00,WUHU216HW,2013-07-04 01:23:00,
2013-07-03 19:33:00,90.2,46.0,29.79,West,270,5.8,13.2,22,0.00,,,0.00,WUHU216HW,2013-07-04 01:33:00,
2013-07-03 19:43:00,89.5,46.4,29.79,WSW,248,4.0,8.1,23,0.00,,,0.00,WUHU216HW,2013-07-04 01:43:00,
2013-07-03 19:53:00,89.1,47.3,29.79,WNW,293,9.2,10.5,24,0.00,,,0.00,WUHU216HW,2013-07-04 01:53:00,
2013-07-03 20:03:00,88.9,48.2,29.79,WNW,293,5.4,6.9,25,0.00,,,0.00,WUHU216HW,2013-07-04 02:03:00,
2013-07-03 20:13:00,88.6,47.9,29.79,West,270,6.5,8.9,25,0.00,,,0.00,WUHU216HW,2013-07-04 02:13:00,
2013-07-03 20:23:00,87.8,47.3,29.79,SW,225,4.0,8.7,25,0.00,,,0.00,WUHU216HW,2013-07-04 02:23:00,
2013-07-03 20:33:00,87.5,48.0,29.79,NW,315,4.0,6.7,26,0.00,,,0.00,WUHU216HW,2013-07-04 02:33:00,
2013-07-03 20:43:00,86.9,47.5,29.79,West,270,1.6,6.5,26,0.00,,,0.00,WUHU216HW,2013-07-04 02:43:00,
2013-07-03 20:53:00,86.4,47.1,29.79,West,270,5.4,8.3,26,0.00,,,0.00,WUHU216HW,2013-07-04 02:53:00,
2013-07-03 21:04:00,85.5,46.4,29.79,WSW,248,3.8,6.5,26,0.00,,,0.00,WUHU216HW,2013-07-04 03:04:00,
2013-07-03 21:14:00,85.0,45.9,29.79,WNW,293,4.9,9.4,26,0.00,,,0.00,WUHU216HW,2013-07-04 03:14:00,
2013-07-03 21:24:00,84.1,45.1,29.79,WSW,248,5.8,5.8,26,0.00,,,0.00,WUHU216HW,2013-07-04 03:24:00,
2013-07-03 21:34:00,83.2,44.3,29.79,SW,225,5.4,5.4,26,0.00,,,0.00,WUHU216HW,2013-07-04 03:34:00,
2013-07-03 21:44:00,82.1,45.6,29.79,SW,225,5.6,9.2,28,0.00,,,0.00,WUHU216HW,2013-07-04 03:44:00,
2013-07-03 21:54:00,81.5,45.1,29.80,SW,225,4.3,9.8,28,0.00,,,0.00,WUHU216HW,2013-07-04 03:54:00,
2013-07-03 22:04:00,81.0,44.6,29.80,WSW,248,2.9,9.8,28,0.00,,,0.00,WUHU216HW,2013-07-04 04:04:00,
2013-07-03 22:14:00,80.6,44.4,29.81,SW,225,3.4,10.5,28,0.00,,,0.00,WUHU216HW,2013-07-04 04:14:00,
2013-07-03 22:24:00,80.3,44.0,29.81,WSW,248,4.7,9.8,28,0.00,,,0.00,WUHU216HW,2013-07-04 04:24:00,
2013-07-03 22:34:00,80.3,44.0,29.81,North,0,0.9,4.0,28,0.00,,,0.00,WUHU216HW,2013-07-04 04:34:00,
2013-07-03 22:44:00,79.6,44.5,29.82,ESE,113,4.0,4.0,29,0.00,,,0.00,WUHU216HW,2013-07-04 04:44:00,
2013-07-03 22:55:00,78.8,44.8,29.82,ENE,68,1.1,3.4,30,0.00,,,0.00,WUHU216HW,2013-07-04 04:55:00,
2013-07-03 23:05:00,78.1,44.3,29.82,North,0,1.1,3.4,30,0.00,,,0.00,WUHU216HW,2013-07-04 05:05:00,
2013-07-03 23:15:00,77.4,44.5,29.82,SSE,158,2.0,3.1,31,0.00,,,0.00,WUHU216HW,2013-07-04 05:15:00,
2013-07-03 23:25:00,77.0,44.9,29.82,NE,45,2.7,4.7,32,0.00,,,0.00,WUHU216HW,2013-07-04 05:25:00,
2013-07-03 23:35:00,76.5,44.4,29.83,ESE,113,4.0,4.0,32,0.00,,,0.00,WUHU216HW,2013-07-04 05:35:00,
2013-07-03 23:45:00,76.3,45.0,29.83,SE,135,3.6,4.9,33,0.00,,,0.00,WUHU216HW,2013-07-04 05:45:00,
2013-07-03 23:55:00,76.0,44.6,29.83,East,90,3.6,6.5,33,0.00,,,0.00,WUHU216HW,2013-07-04 05:55:00,